Flag for Germany Weather past 2 weeks in Straubing, Bavaria, Germany

Now
72 °F

Sunny.


Feels Like: 77 °F
Forecast: 41 / 57 °F
Wind: 2 mph from North

Location: Straubing

Current Time: Apr 27, 2015 at 7:31:32 PM

Latest Report: Apr 27, 2015 at 7:00 PM


Visibility: 41 mi

Pressure: 29.41 "Hg

Humidity: 37%

Dew point: 44 °F

Location of StraubingLocation

Historic Weather in Straubing — Graph

°F

Straubing temperature yesterday

Maximum temperature yesterday: 67 °F (at 2:00 PM)
Minimum temperature yesterday: 52 °F (at 7:00 AM)
Average temperature yesterday: 58 °F

Past Weeks' High & Low Weather Summary

 TemperatureHumidityPressure
High73 °F (Apr 27, 6:00 PM)100% (Apr 24, 2:00 AM)30.47 "Hg (Apr 24, 2:00 AM)
Low33 °F (Apr 24, 3:00 AM)20% (Apr 21, 4:00 PM)29.44 "Hg (Apr 27, 6:00 PM)
Average53 °F64%30.10 "Hg
* Reported Apr 12 6:00 PM — Apr 27 6:00 PM, Straubing, Weather by CustomWeather, © 2015

Note: Actual official high and low records may vary slightly from our data, if they occured in-between our weather recording intervals... More about our weather records

Advertising

Straubing weather history for previous 24 hours

 ConditionsComfort  
Time TempWeatherWind HumidityBarometerVisibility
6:00 PM
Mon, Apr 27
73 °FSunny.2 mph36%29.44 "Hg40 mi
4:00 PM72 °FScattered clouds.2 mph37%29.47 "Hg43 mi
3:00 PM73 °FOvercast.2 mph48%29.50 "Hg22 mi
2:00 PM71 °FOvercast.1 mph48%29.50 "Hg25 mi
1:00 PM68 °FOvercast.2 mph53%29.55 "Hg34 mi
12:00 PM67 °FSunny.1 mph56%29.57 "Hg19 mi
10:00 AM61 °FPassing clouds.3 mph71%29.58 "Hg17 mi
9:00 AM57 °FPartly sunny.5 mph75%29.60 "Hg11 mi
8:00 AM56 °FSunny.5 mph80%29.60 "Hg9 mi
7:00 AM49 °FSunny.3 mph88%29.62 "Hg14 mi
6:00 AM49 °FSunny.3 mph88%29.62 "Hg18 mi
4:00 AM50 °FClear.1 mph89%29.65 "Hg22 mi
3:00 AM50 °FClear.2 mph90%29.66 "Hg18 mi
2:00 AM51 °FClear.1 mph93%29.67 "Hg13 mi
1:00 AM51 °FClear.1 mph92%29.69 "Hg12 mi
12:00 AM54 °FClear.2 mph85%29.70 "Hg17 mi
10:00 PM
Sun, Apr 26
57 °FOvercast.3 mph76%29.71 "Hg25 mi
9:00 PM57 °FOvercast.3 mph80%29.71 "Hg16 mi
8:00 PM61 °FOvercast.3 mph75%29.70 "Hg19 mi
7:00 PM64 °FPassing clouds.5 mph65%29.71 "Hg28 mi
Weather by CustomWeather, © 2015

See weather overviewHow to use our weather pages